Weather in Igrekovo

Russia / Tomsk District     57°44′43″N   83°47′47″E
temp.,
°C
wind,
m/s
gust,
m/s
humid.,
%
clouds,
%
prec.,
mm/h
press.,
hPa
HPBL,
m
24 july, sat
sat2401:00+17e227527 0.0 100730
04:00+15ene227877 0.0 100818
07:00+17e2576100 0.0 1008129
10:00+23ene345695 0.0 1007456
13:00+27ene34383 0.0 10071458
16:00+29ene23330 0.0 10061780
19:00+29ene23430 0.0 1006695
22:00+21nnw22660 0.0 100613
25 july, sun
sun2501:00+18n227368 0.0 100613
04:00+17nne2276100 0.0 100612
07:00+19n227398 0.0 100649
10:00+24ne125599 0.0 1006333
13:00+29ene124492 0.0 10051025
16:00+31se123943 0.0 10041815
19:00+30s1251100 0.0 1003592
22:00+23e1169100 0.0 100216
26 july, mon
mon2601:00+19sw1194100 3.3 100225
04:00+19se2495100 0.9 100086
07:00+20se269618 0.9 1000194
10:00+24sse457494 0.0 998666
13:00+25sse46757 2.3 997933
16:00+25s4779100 3.6 996556
19:00+23se598984 7.4 994309
22:00+19ssw3995100 8.8 995186
27 july, tue
tue2701:00+15wsw51098100 10.4 996564
04:00+11wsw51096100 0.3 997610
07:00+10wsw4896100 0.8 999738
10:00+10wsw5995100 0.3 1001693
13:00+10wsw51095100 0.7 1002795
16:00+10wsw61195100 0.6 1004780
19:00+10wsw51094100 0.9 1006748
22:00+10wsw41093100 0.0 1008547
28 july, wed
wed2801:00+10wsw4988100 0.0 1009397
04:00+10sw378370 0.0 1009225
07:00+11s2780100 0.1 1010257
10:00+16ssw34615 0.0 1010815
13:00+19sw4444100 0.0 10091891
16:00+19sw565699 0.1 10091342
19:00+15s2380100 0.9 101057
22:00+13s338827 0.0 101041